User: anonymous   Login
Location: Unspecified
(0.0000°N, 0.0000°E)
Time: 22:17:48
(UTC+02:00)
Language:

SWIFT - Orbit

View from above orbital plane
View from above orbital plane
View from above satellite
View from above satellite

Ground track
Ground track

The orbit data is extracted from the following two-line orbital elements,

1 28485U 04047A   16273.86506286 +.00001862 +00000-0 +10136-3 0  9993
2 28485 020.5561 154.1430 0011485 190.2087 169.8114 15.03351850648955
Epoch (UTC): 29 September 2016 20:45:41
Eccentricity: 0.0011485
inclination: 20.5561°
perigee height: 548 km
apogee height: 564 km
right ascension of ascending node: 154.1430°
argument of perigee: 190.2087°
revolutions per day: 15.03351850
mean anomaly at epoch: 169.8114°
orbit number at epoch: 64895

The dashed part of the orbit path shows where the satellite is in the earth's shadow,  

DLR